This is the latest recevied weather packets stored in our database for station/object K0QED. If no packets are shown the sender has not sent any weather packets the latest 10 day(s).
| Time | Temp. | Humidity | Pressure | Rain* | Wind** | Luminosity | Snow |
|---|---|---|---|---|---|---|---|
| 1787880752 | 21.11° C | 54% | 1029.2 hPa | 0 mm | - | 3 W/m² | - |
| 1787880450 | 21.67° C | 54% | 1029.5 hPa | 0 mm | - | 9 W/m² | - |
| 1787880145 | 21.67° C | 54% | 1029.4 hPa | 0 mm | - | 18 W/m² | - |
| 1787879839 | 21.67° C | 55% | 1029.9 hPa | 0 mm | - | 19 W/m² | - |
| 1787879535 | 21.67° C | 54% | 1029.7 hPa | 0 mm | - | 20 W/m² | - |
| 1787879230 | 22.22° C | 54% | 1029.7 hPa | 0 mm | - | 32 W/m² | - |
| 1787878928 | 22.22° C | 53% | 1029.9 hPa | 0 mm | - | 38 W/m² | - |
| 1787878627 | 22.22° C | 53% | 1030 hPa | 0 mm | - | 44 W/m² | - |
| 1787878321 | 22.22° C | 52% | 1030 hPa | 0 mm | - | 52 W/m² | - |
| 1787878017 | 22.22° C | 53% | 1030.2 hPa | 0 mm | - | 50 W/m² | - |
| 1787877713 | 22.22° C | 52% | 1029.9 hPa | 0 mm | - | 31 W/m² | - |
| 1787877408 | 22.22° C | 52% | 1030.2 hPa | 0 mm | - | 20 W/m² | - |
| 1787877104 | 22.22° C | 52% | 1030.2 hPa | 0 mm | - | 18 W/m² | - |
| 1787876804 | 22.22° C | 51% | 1030 hPa | 0 mm | - | 22 W/m² | - |
| 1787876499 | 22.78° C | 50% | 1030 hPa | 0 mm | - | 31 W/m² | - |
| 1787876197 | 22.78° C | 49% | 1029.7 hPa | 0 mm | - | 39 W/m² | - |
| 1787875892 | 22.78° C | 48% | 1030 hPa | 0 mm | - | 46 W/m² | - |
| 1787875592 | 22.78° C | 48% | 1029.7 hPa | 0 mm | - | 51 W/m² | - |
| 1787875292 | 22.78° C | 48% | 1030 hPa | 0 mm | - | 50 W/m² | - |
| 1787874990 | 23.33° C | 45% | 1029.7 hPa | 0 mm | - | 58 W/m² | - |
| 1787874686 | 23.33° C | 44% | 1030 hPa | 0 mm | - | 65 W/m² | - |
| 1787874384 | 23.33° C | 42% | 1029.9 hPa | 0 mm | - | 74 W/m² | - |
| 1787874079 | 23.33° C | 45% | 1029.9 hPa | 0 mm | - | 75 W/m² | - |
| 1787873778 | 24.44° C | 46% | 1029.7 hPa | 0 mm | - | 86 W/m² | - |
| 1787873474 | 24.44° C | 43% | 1029.9 hPa | 0 mm | - | 168 W/m² | - |
* Rain latest hour (hover to see other rain measurements)
** Current wind speed in m/s (hover to see current wind gust speed)